This demonstration page uses our WeatherBlox Daily Observations layout. Learn more.

Left ArrowRight Arrow

Hourly Observations for August 16, 2019

Temp ( °F °C ) Dew Point ( °F °C ) Humidity (%) Winds ( mph kmh ) Pressure ( in mb ) Visibility ( mi km ) Precip ( " mm )
12:53 am 00:53 Clear 82 27.8 54 12.2 38 38 SE 8 13 29.85 1011 10 16 0.00 0.00
1:53 am 01:53 Clear 81 27.2 55 12.8 41 41 SE 7 11 29.84 1011 10 16 0.00 0.00
2:53 am 02:53 Clear 79 26.1 56 13.3 45 45 SE 7 11 29.83 1010 10 16 0.00 0.00
3:53 am 03:53 Clear 77 25 57 13.9 50 50 SE 5 7 29.82 1010 10 16 0.00 0.00
4:53 am 04:53 Clear 77 25 58 14.4 52 52 SE 9 15 29.82 1010 10 16 0.00 0.00
5:53 am 05:53 Clear 75 23.9 58 14.4 55 55 Calm 29.83 1010 10 16 0.00 0.00
6:53 am 06:53 Clear 74 23.3 59 15 60 60 SE 6 9 29.83 1010 10 16 0.00 0.00
7:53 am 07:53 Sunny 76 24.4 59 15 56 56 SE 9 15 29.84 1011 10 16 0.00 0.00
8:53 am 08:53 Sunny 80 26.7 59 15 49 49 SE 7 11 29.86 1011 10 16 0.00 0.00
9:53 am 09:53 Sunny 86 30 58 14.4 39 39 S 7 11 29.86 1011 10 16 0.00 0.00
10:53 am 10:53 Sunny 92 33.3 55 12.8 29 29 W 3 6 29.85 1011 10 16 0.00 0.00
11:53 am 11:53 Sunny 96 35.6 54 12.2 24 24 VRB 7 11 29.85 1011 10 16 0.00 0.00
12:53 pm 12:53 Sunny 98 36.7 52 11.1 21 21 WSW 7 11 29.82 1010 10 16 0.00 0.00
1:53 pm 13:53 Sunny 101 38.3 50 10 18 18 SW 9 15 29.79 1009 10 16 0.00 0.00
2:53 pm 14:53 Sunny 101 38.3 46 7.8 15 15 VRB 3 6 29.77 1008 10 16 0.00 0.00
3:53 pm 15:53 Sunny 104 40 44 6.7 13 13 SW 9 15 29.73 1007 10 16 0.00 0.00
4:53 pm 16:53 Sunny 102 38.9 45 7.2 14 14 WSW 9 15 29.70 1006 10 16 0.00 0.00
5:53 pm 17:53 Sunny 103 39.4 44 6.7 13 13 Calm 29.69 1005 10 16 0.00 0.00
6:53 pm 18:53 Sunny 102 38.9 46 7.8 15 15 N 3 6 29.68 1005 10 16 0.00 0.00
7:53 pm 19:53 Sunny 99 37.2 50 10 19 19 S 18 30 29.68 1005 10 16 0.00 0.00
8:53 pm 20:53 Clear 95 35 51 10.6 23 23 S 13 20 29.70 1006 10 16 0.00 0.00
9:53 pm 21:53 Clear 92 33.3 53 11.7 27 27 S 8 13 29.71 1006 10 16 0.00 0.00
10:53 pm 22:53 Clear 86 30 54 12.2 33 33 S 6 9 29.73 1007 10 16 0.00 0.00
11:53 pm 23:53 Clear 84 28.9 54 12.2 36 36 S 8 13 29.75 1007 10 16 0.00 0.00

Powered by AerisWeather